Temperature
20 19 19 19 19 19 20 20 20 21 21 21 21 20 19 18 18 17 17 17 17 17 17 16 16 16 16 16 16 16 15 15 15 15 15 15 15 15 15 15 14 14 14 14
19 19 19 19 19 19 19 20 20 20 20 21 20 19 19 18 18 17 17 17 16 16 16 16 16 16 16 16 16 16 15 15 15 15 15 15 15 14 14 15 14 14 14 14
19 19 18 19 20 20 20 20 20 20 20 20 20 19 19 18 18 17 17 17 16 16 16 16 16 16 16 16 16 16 15 15 15 15 15 15 15 14 14 14 14 14 14 14
18 18 17 20 20 19 19 19 20 20 20 19 19 18 18 17 17 17 17 16 16 16 16 16 16 16 16 16 16 15 15 15 15 15 15 15 14 14 14 14 14 14 14 14
17 17 18 19 19 18 19 19 19 19 19 18 18 18 18 17 17 16 16 16 16 16 16 16 16 16 16 16 16 15 15 15 15 14 14 14 14 14 14 14 14 14 14 14
17 17 17 19 19 18 18 18 19 19 18 18 17 19 19 17 16 16 16 16 16 16 15 16 16 16 16 16 15 15 15 15 14 14 14 14 14 14 14 14 14 14 13 13
17 17 18 19 17 17 18 19 19 18 18 17 17 18 17 16 16 16 16 15 15 15 15 16 16 16 16 15 15 15 15 14 14 14 14 14 14 14 14 13 13 13 13 13
17 16 17 17 17 18 19 18 17 17 17 16 16 16 15 15 15 15 15 15 15 15 15 15 15 15 15 15 15 15 14 14 14 14 14 14 14 14 13 13 13 13 13 13
17 17 17 16 17 16 16 16 16 16 15 15 15 15 15 15 15 15 15 15 15 15 15 15 15 15 15 15 15 15 14 14 14 14 14 14 14 13 13 13 13 13 13 12
16 16 16 15 15 15 15 15 15 14 14 14 14 14 14 14 14 14 14 14 15 14 15 15 15 15 15 15 15 14 14 14 14 14 13 13 13 13 13 13 13 12 12 12
15 16 15 14 14 14 14 14 13 13 13 13 13 13 14 14 14 14 14 14 14 14 14 14 14 14 14 14 14 14 14 14 13 13 13 13 13 13 13 13 13 12 12 12
15 15 15 15 14 13 13 13 13 13 13 13 13 13 13 13 13 13 13 13 14 14 14 14 14 14 14 14 14 14 13 13 13 13 13 13 13 13 13 12 12 12 12 12
13 12 12 12 12 12 12 12 12 12 12 12 12 12 13 13 13 13 13 13 13 14 13 14 14 14 14 13 13 13 13 13 13 13 13 12 12 12 12 12 12 12 12 12
11 11 11 11 12 12 12 12 12 12 12 12 12 12 12 12 12 12 13 13 13 13 13 13 13 13 13 13 13 13 13 13 13 13 12 12 12 12 12 11 11 11 11 11
10 10 11 11 11 11 11 11 11 11 11 11 12 12 12 12 12 12 12 12 12 12 13 13 13 13 13 13 13 13 12 12 12 12 12 12 12 12 11 11 11 11 11 11
9 9 10 10 10 10 10 10 10 11 11 11 11 11 11 11 12 12 12 12 12 12 12 12 12 12 12 12 12 12 12 12 12 12 12 11 11 11 11 11 11 11 10 11
9 9 9 9 9 9 10 10 10 10 10 10 10 11 11 11 11 11 11 12 12 12 12 12 12 12 12 12 12 12 12 12 12 11 11 11 11 11 11 10 10 10 10 10
8 8 8 8 8 9 9 9 9 9 10 10 10 10 10 10 10 11 11 11 11 11 11 11 11 11 11 11 11 11 11 11 11 11 11 11 11 10 10 10 10 10 9 9
8 8 8 8 8 8 8 9 9 9 9 9 9 9 10 10 10 10 10 10 10 10 10 10 11 11 11 10 10 10 10 10 10 10 10 10 10 10 10 9 9 9 9 9
7 7 7 7 8 8 8 8 8 8 9 9 9 9 9 9 9 9 9 9 9 9 10 10 10 10 10 10 10 10 10 10 9 9 9 9 9 9 9 9 9 9 8 8
7 7 7 7 7 7 7 7 8 8 8 8 8 8 8 8 8 9 9 9 9 9 9 9 9 9 9 9 9 9 9 9 9 9 9 9 9 9 9 8 8 8 8 8
6 6 6 6 7 7 7 7 7 7 7 7 7 8 8 8 8 8 8 8 8 8 8 8 8 8 8 8 8 8 8 8 8 8 8 8 8 8 8 8 7 7 7 7
6 6 6 6 6 6 6 6 6 7 7 7 7 7 7 7 7 7 7 7 8 8 8 8 8 8 8 8 8 8 7 7 7 7 7 7 7 7 7 7 7 7 7 7
5 5 5 5 5 5 5 6 6 6 6 6 6 6 6 6 6 6 7 7 7 7 7 7 7 7 7 7 7 7 7 7 7 6 6 6 6 6 6 6 6 6 6 6
5 5 5 5 5 5 5 5 5 5 5 5 5 6 6 6 6 6 6 6 6 6 6 6 6 7 7 6 6 6 6 6 6 6 6 6 6 6 6 6 6 6 6 6
4 4 4 4 4 4 4 4 4 4 4 4 5 5 5 5 5 5 5 5 5 6 6 6 6 6 6 6 6 6 6 5 5 5 5 5 5 5 5 5 5 5 5 5
4 4 4 4 4 4 4 4 3 4 4 4 4 4 4 4 4 4 5 5 5 5 5 5 5 5 5 5 5 5 5 5 5 5 5 4 4 4 4 4 4 4 4 4
Wind_Speed
9 8 8 10 11 11 14 14 14 13 13 11 9 7 6 6 5 5 4 4 4 5 5 5 6 6 5 6 6 7 8 7 7 7 6 7 7 7 7 6 6 6 6 6
9 8 9 12 14 14 14 15 16 15 14 9 8 8 7 6 6 6 5 5 6 6 6 7 7 6 6 6 7 8 8 8 7 6 6 7 7 7 6 6 6 6 6 6
9 6 9 12 12 12 11 11 12 14 12 7 8 8 7 6 6 6 6 6 7 7 7 7 7 7 7 7 7 8 8 7 7 7 7 7 7 7 7 7 7 7 7 6
7 7 10 5 1 6 9 10 10 11 9 8 8 8 6 6 6 7 6 7 7 7 7 7 7 8 7 7 8 8 8 8 8 8 7 7 8 7 7 7 7 7 6 6
6 9 11 8 6 6 8 9 8 9 8 7 6 6 6 5 6 7 7 7 6 7 7 6 7 7 8 8 8 9 9 9 9 8 8 8 8 8 7 7 7 7 7 7
8 8 8 5 3 3 6 8 5 6 6 5 4 7 5 4 5 6 6 6 5 5 6 6 6 7 8 9 9 10 9 9 9 9 9 9 9 8 7 7 7 7 7 7
13 11 9 4 2 4 7 4 2 4 5 5 6 7 6 6 6 6 6 5 5 5 5 6 6 7 9 9 10 9 9 9 8 9 9 9 8 8 7 7 7 7 7 7
10 12 10 3 5 6 5 3 4 5 5 7 8 7 7 6 6 6 6 5 5 5 5 5 6 8 8 9 8 8 8 8 9 9 8 8 8 8 8 7 7 8 7 7
8 8 5 5 6 7 7 8 7 7 7 8 8 8 8 8 7 6 6 6 5 6 6 5 6 7 9 7 7 7 8 9 9 9 8 8 8 8 8 8 7 7 7 7
9 10 9 9 9 9 8 9 9 8 8 8 9 9 8 8 7 7 6 6 6 6 6 6 6 7 7 6 7 8 9 9 8 8 8 8 7 8 8 8 8 8 8 7
13 12 11 10 10 10 9 8 8 8 8 8 9 9 9 8 8 7 6 6 6 7 7 7 6 7 6 6 7 8 8 8 8 8 8 8 8 7 9 9 9 8 8 8
11 10 10 11 9 9 9 9 8 8 8 8 8 9 9 8 8 7 7 6 6 7 7 7 6 6 6 6 7 7 7 7 7 7 7 7 7 6 6 7 7 9 9 9
13 12 12 12 11 10 9 9 9 8 8 8 8 8 8 8 8 8 8 8 7 7 7 7 6 6 6 7 7 7 7 7 6 7 7 7 7 7 6 5 6 9 10 10
11 11 12 11 11 10 10 9 8 9 9 8 7 7 7 8 8 9 8 8 7 7 7 7 6 6 6 6 7 8 8 7 7 7 7 7 7 7 7 7 7 6 7 11
11 11 11 11 10 10 9 8 8 8 8 8 6 7 7 8 8 8 8 7 7 7 7 6 6 6 5 6 7 8 7 6 6 6 7 7 7 7 7 8 7 6 5 6
10 10 10 9 9 9 9 9 8 8 7 7 7 7 7 8 8 7 7 6 6 7 6 6 6 5 5 6 6 6 6 6 6 6 6 7 7 7 7 7 7 7 7 6
9 9 9 9 10 10 9 8 8 8 7 7 8 8 7 6 6 6 5 5 6 6 5 5 5 4 5 5 5 5 5 5 6 6 6 6 7 7 7 7 7 6 6 6
8 9 10 10 10 10 9 9 8 8 8 7 7 6 6 6 6 5 5 4 4 4 4 4 4 4 4 5 4 4 4 4 5 5 5 6 6 6 6 6 7 7 6 6
7 7 8 8 8 8 8 8 8 7 7 6 6 5 5 5 5 5 4 4 4 4 4 3 3 3 3 3 3 4 4 4 4 4 4 4 5 5 6 6 6 6 6 6
6 6 7 7 7 7 7 7 7 6 5 5 5 4 4 5 4 4 4 3 3 3 3 2 2 2 2 3 3 3 3 3 3 3 3 3 4 5 5 5 5 6 6 5
6 6 6 6 7 7 6 6 6 5 5 4 4 4 4 4 4 3 3 3 3 2 2 1 2 1 1 1 2 2 2 2 2 3 3 3 4 4 4 5 5 5 5 5
6 6 6 6 6 7 6 6 5 5 4 4 4 3 3 3 3 3 3 3 2 1 1 1 1 0 1 0 1 1 1 2 2 2 2 2 3 4 4 4 4 4 4 4
7 7 7 7 7 7 6 6 5 4 4 4 4 3 3 3 3 2 3 2 2 2 1 1 1 2 2 1 0 0 1 1 1 1 2 2 2 3 3 4 4 4 4 4
7 7 7 6 6 6 6 6 5 4 4 4 4 4 3 2 2 3 2 2 2 1 1 1 1 1 1 0 0 0 1 1 1 1 2 2 2 2 3 3 3 3 4 4
7 7 6 6 5 5 5 5 5 4 4 3 4 4 3 3 3 3 3 2 2 1 1 1 1 1 1 0 1 1 1 1 1 1 2 2 2 2 2 2 2 2 3 3
7 6 5 5 5 4 4 4 4 4 3 3 3 3 3 3 2 2 2 2 2 2 2 2 1 1 1 1 1 1 1 1 1 2 2 2 2 2 2 2 2 2 2 2
6 5 4 4 4 4 3 3 4 4 4 3 3 4 3 3 2 2 2 2 2 2 2 2 1 1 1 1 1 1 2 2 2 2 2 2 2 2 2 2 2 2 2 1
Wind_Direction
264 271 265 265 262 251 247 254 261 268 272 271 264 264 270 277 279 273 266 257 240 225 223 215 212 208 206 205 198 198 199 202 207 204 200 199 197 196 199 200 202 201 200 202
260 259 262 266 262 255 253 255 256 264 267 270 262 258 258 263 266 265 260 254 250 238 230 224 217 212 208 208 201 199 201 201 200 199 195 197 198 198 196 196 202 204 205 204
263 267 273 263 253 244 244 245 252 259 266 268 257 251 253 261 261 261 263 261 256 244 233 232 225 215 211 209 201 199 201 197 195 196 194 196 196 195 196 200 203 207 210 209
263 264 254 267 256 249 253 256 252 261 270 261 260 258 255 260 259 265 269 267 259 251 245 242 230 220 213 208 202 201 201 198 196 196 195 197 197 197 201 203 204 208 212 213
245 257 266 262 241 234 246 261 257 251 259 264 269 256 246 258 264 268 271 270 265 258 251 244 230 217 211 209 204 203 203 202 197 197 197 199 200 202 204 205 206 209 210 211
233 250 258 259 194 215 256 258 240 233 245 257 254 255 265 285 275 277 280 280 274 262 255 244 231 217 212 213 208 209 207 206 200 199 199 203 205 204 205 207 209 211 211 214
237 248 259 262 189 199 234 266 192 230 246 244 249 280 297 297 286 279 280 281 276 260 248 242 229 217 218 216 215 215 209 206 203 202 203 206 205 202 202 204 208 213 212 214
231 241 248 179 189 219 268 307 286 273 269 261 269 285 291 289 286 282 280 278 269 261 253 245 230 220 222 223 218 211 205 204 205 204 204 204 202 201 203 202 207 212 215 216
240 251 277 233 241 270 285 279 278 278 276 271 269 275 281 280 277 275 274 272 265 261 259 251 234 225 224 224 215 205 204 206 207 205 204 203 201 199 202 205 211 215 213 216
254 257 266 269 269 273 274 272 275 274 273 269 269 271 273 274 273 271 269 268 265 257 254 252 242 232 230 220 210 206 206 208 205 206 206 205 205 206 205 206 210 216 216 218
260 268 277 267 269 275 277 274 273 274 271 268 269 269 268 270 271 270 266 261 257 250 248 249 243 234 224 213 206 210 211 211 210 209 209 209 211 212 214 215 213 216 222 219
264 276 279 282 288 290 282 275 273 273 275 271 265 267 268 269 269 267 265 261 254 250 249 247 240 234 223 213 207 209 212 212 213 211 211 212 214 219 226 228 219 226 235 232
272 284 284 282 286 284 278 276 273 270 272 275 272 266 264 265 265 263 262 256 251 251 250 247 239 233 226 216 213 214 216 214 213 213 212 213 215 217 223 225 219 226 227 224
273 277 274 274 279 283 282 278 277 274 272 270 271 270 266 265 265 260 258 256 253 250 247 244 239 235 227 218 217 220 223 219 217 216 215 215 218 219 220 221 223 229 222 214
276 274 273 280 284 285 285 281 278 275 274 273 270 267 265 263 263 262 263 261 253 249 245 243 240 237 225 220 219 222 222 219 218 219 217 217 218 219 220 222 224 224 222 209
287 287 281 279 282 288 286 280 277 277 275 275 275 270 268 267 267 265 261 251 244 243 243 241 241 237 226 223 222 223 223 220 221 221 219 218 217 218 218 220 222 222 221 213
286 288 290 289 289 290 289 288 287 284 281 277 277 278 272 267 265 263 259 252 249 249 246 244 243 234 227 224 222 223 222 218 216 221 220 219 220 220 219 219 221 223 225 213
283 284 285 285 286 288 292 294 294 292 289 285 281 276 269 261 261 265 267 265 261 258 258 254 245 232 226 226 224 224 222 224 224 228 224 222 220 221 219 219 219 223 227 210
292 293 296 297 295 292 292 294 296 296 294 289 280 273 268 265 264 268 269 266 263 264 268 263 258 231 227 227 233 224 224 225 227 231 228 218 217 218 217 216 218 219 218 210
312 313 313 312 309 303 299 299 299 301 303 301 295 287 278 272 269 266 265 268 271 279 282 270 242 232 227 224 234 225 222 221 223 226 228 226 222 221 219 215 216 216 215 211
319 320 318 316 316 314 308 302 300 300 304 304 293 284 282 281 275 270 269 276 289 294 291 285 254 241 227 225 226 217 212 215 222 229 230 227 222 220 219 215 213 214 213 210
318 320 319 320 321 321 321 318 314 310 310 310 305 297 293 291 290 289 282 282 293 312 282 268 271 346 6 353 198 197 211 222 226 230 231 232 226 221 217 216 216 216 213 210
315 317 317 319 319 319 323 324 322 316 312 311 312 312 304 303 299 286 292 306 304 332 317 305 357 35 27 9 215 202 220 227 229 235 236 236 239 234 223 219 219 216 215 214
312 313 314 316 319 319 322 325 321 316 315 316 318 316 310 310 315 312 308 334 348 347 322 358 30 28 15 293 280 252 238 247 247 244 243 239 239 240 234 226 223 221 221 218
306 307 309 314 315 313 312 316 318 317 318 320 326 331 327 322 315 317 320 330 355 360 333 11 24 354 306 293 301 297 284 269 257 251 246 240 240 243 242 241 241 239 235 228
303 302 300 298 301 301 303 306 308 309 309 315 326 330 332 335 331 319 324 339 347 348 323 317 315 312 305 304 292 283 275 267 264 263 257 251 246 243 237 233 239 243 242 231
298 299 297 297 301 302 301 299 300 306 310 312 317 320 320 322 326 332 332 329 331 334 330 325 322 316 302 293 286 281 277 272 265 261 261 259 255 246 235 234 238 239 237 225
Height
1524 1524 1525 1525 1524 1524 1523 1520 1520 1515 1514 1512 1513 1516 1518 1519 1519 1520 1519 1519 1520 1521 1522 1523 1524 1525 1527 1528 1529 1531 1532 1534 1536 1537 1539 1540 1542 1543 1544 1546 1547 1548 1549 1550
1524 1524 1524 1523 1520 1519 1519 1517 1515 1514 1512 1510 1513 1515 1516 1517 1517 1517 1517 1517 1518 1518 1519 1520 1521 1522 1523 1525 1526 1528 1529 1530 1532 1534 1535 1537 1538 1540 1541 1542 1544 1545 1546 1547
1522 1521 1522 1519 1512 1512 1512 1511 1512 1511 1508 1509 1510 1512 1513 1514 1515 1514 1514 1515 1515 1515 1516 1517 1518 1519 1520 1521 1523 1524 1526 1527 1528 1530 1532 1533 1535 1536 1538 1539 1541 1542 1543 1544
1523 1524 1527 1510 1507 1509 1510 1508 1508 1507 1506 1508 1509 1510 1511 1511 1512 1512 1512 1512 1512 1512 1513 1514 1514 1516 1517 1518 1519 1521 1522 1524 1525 1526 1528 1530 1531 1533 1534 1536 1537 1538 1540 1541
1523 1522 1513 1506 1506 1508 1508 1505 1504 1505 1505 1507 1507 1507 1507 1508 1509 1509 1509 1509 1509 1509 1509 1510 1511 1512 1513 1515 1516 1517 1518 1520 1521 1522 1524 1525 1527 1529 1531 1532 1533 1535 1536 1537
1521 1522 1516 1504 1503 1505 1507 1504 1501 1502 1503 1504 1505 1503 1503 1505 1505 1506 1506 1506 1506 1505 1506 1506 1507 1508 1510 1511 1512 1513 1514 1516 1517 1519 1520 1522 1523 1525 1527 1528 1529 1531 1532 1533
1517 1515 1504 1500 1503 1506 1508 1500 1499 1500 1501 1502 1502 1502 1503 1503 1503 1503 1503 1502 1502 1502 1502 1503 1503 1504 1506 1507 1508 1509 1511 1512 1513 1515 1517 1518 1520 1521 1523 1524 1525 1527 1528 1529
1511 1512 1506 1500 1502 1501 1498 1498 1498 1498 1499 1500 1500 1500 1500 1500 1499 1499 1499 1499 1499 1499 1499 1499 1500 1500 1501 1502 1504 1505 1506 1508 1509 1511 1513 1514 1516 1517 1518 1520 1521 1522 1523 1524
1503 1501 1497 1498 1498 1498 1498 1497 1497 1496 1497 1498 1497 1497 1497 1496 1496 1496 1495 1495 1495 1495 1495 1495 1495 1496 1497 1498 1499 1501 1502 1503 1505 1507 1508 1510 1511 1512 1514 1515 1516 1517 1518 1519
1501 1496 1497 1496 1495 1495 1494 1494 1493 1493 1494 1494 1493 1493 1493 1492 1492 1492 1491 1491 1491 1491 1491 1491 1491 1492 1493 1493 1494 1496 1498 1499 1500 1502 1504 1505 1507 1508 1509 1510 1511 1512 1513 1514
1497 1495 1495 1492 1492 1491 1490 1489 1489 1489 1489 1489 1489 1489 1488 1488 1488 1487 1487 1487 1487 1486 1486 1486 1487 1487 1488 1489 1490 1492 1493 1494 1496 1497 1499 1500 1501 1502 1503 1505 1506 1507 1508 1509
1493 1493 1492 1490 1489 1489 1487 1486 1486 1485 1485 1485 1485 1484 1483 1483 1483 1482 1482 1482 1482 1482 1482 1482 1482 1482 1483 1484 1486 1487 1488 1489 1491 1492 1493 1494 1495 1497 1498 1499 1500 1501 1502 1503
1492 1491 1489 1487 1486 1485 1484 1483 1482 1481 1480 1480 1479 1479 1478 1478 1478 1477 1477 1477 1477 1477 1477 1477 1477 1478 1479 1480 1481 1482 1483 1484 1485 1486 1487 1488 1490 1491 1492 1493 1494 1495 1496 1497
1489 1487 1485 1483 1482 1480 1479 1478 1477 1476 1476 1475 1474 1474 1473 1473 1472 1472 1472 1472 1472 1472 1472 1472 1472 1473 1474 1475 1476 1477 1478 1479 1480 1481 1482 1483 1484 1485 1486 1487 1488 1488 1490 1491
1484 1483 1481 1479 1477 1476 1475 1474 1472 1471 1471 1470 1469 1469 1469 1468 1467 1467 1467 1467 1467 1467 1467 1467 1467 1468 1468 1469 1470 1471 1472 1473 1474 1475 1476 1477 1478 1480 1481 1481 1482 1483 1484 1485
1480 1478 1476 1475 1473 1472 1471 1470 1468 1467 1466 1465 1465 1464 1464 1463 1463 1462 1462 1462 1462 1461 1461 1462 1462 1462 1463 1464 1464 1465 1466 1467 1468 1469 1470 1471 1472 1473 1474 1475 1476 1477 1478 1479
1476 1473 1472 1471 1469 1468 1467 1465 1464 1463 1462 1461 1460 1460 1459 1458 1458 1457 1457 1457 1457 1457 1457 1457 1457 1457 1458 1458 1459 1459 1460 1461 1462 1463 1464 1465 1466 1467 1468 1469 1470 1471 1472 1473
1473 1471 1469 1468 1466 1464 1463 1461 1460 1458 1457 1457 1456 1455 1455 1454 1454 1453 1453 1453 1453 1452 1452 1452 1452 1452 1453 1453 1454 1454 1455 1455 1456 1457 1458 1459 1460 1461 1462 1463 1464 1465 1466 1467
1469 1467 1465 1464 1462 1461 1459 1457 1456 1455 1454 1453 1452 1451 1451 1450 1450 1450 1450 1449 1448 1448 1448 1448 1448 1448 1448 1448 1449 1449 1450 1451 1451 1452 1452 1453 1454 1455 1456 1457 1458 1459 1460 1461
1466 1464 1462 1461 1459 1457 1456 1454 1453 1452 1451 1450 1449 1448 1447 1447 1447 1447 1446 1445 1445 1444 1444 1444 1444 1444 1444 1445 1445 1445 1446 1446 1446 1446 1447 1448 1448 1449 1450 1451 1452 1453 1454 1455
1463 1462 1460 1458 1456 1454 1453 1451 1450 1449 1448 1447 1446 1445 1444 1444 1444 1443 1442 1442 1442 1441 1441 1441 1441 1441 1441 1441 1441 1441 1441 1441 1442 1442 1442 1442 1443 1444 1445 1446 1447 1448 1448 1449
1461 1459 1458 1456 1453 1451 1450 1449 1447 1446 1445 1444 1443 1442 1441 1441 1440 1440 1439 1439 1438 1438 1438 1438 1438 1438 1438 1438 1438 1437 1437 1438 1438 1438 1438 1438 1439 1439 1440 1440 1441 1442 1443 1444
1459 1457 1455 1453 1451 1449 1447 1446 1445 1443 1442 1441 1440 1439 1439 1438 1438 1437 1437 1436 1436 1436 1435 1435 1435 1435 1435 1435 1435 1435 1434 1434 1434 1434 1434 1435 1435 1435 1435 1436 1436 1437 1438 1438
1457 1455 1453 1451 1449 1447 1445 1443 1442 1441 1440 1439 1438 1437 1437 1436 1435 1435 1435 1434 1434 1433 1433 1433 1433 1433 1433 1433 1433 1432 1432 1432 1432 1431 1431 1431 1431 1432 1432 1432 1432 1433 1433 1433
1454 1452 1451 1449 1447 1445 1443 1442 1441 1439 1438 1437 1436 1436 1435 1434 1434 1433 1433 1432 1431 1431 1431 1431 1431 1430 1430 1430 1430 1430 1429 1429 1429 1428 1428 1427 1427 1428 1428 1428 1428 1428 1428 1428
1451 1450 1448 1447 1445 1443 1441 1440 1438 1437 1436 1435 1434 1434 1433 1432 1432 1431 1430 1430 1429 1429 1428 1428 1428 1428 1428 1427 1427 1427 1426 1426 1426 1425 1424 1424 1424 1424 1424 1424 1424 1424 1424 1424
1448 1447 1445 1444 1442 1441 1439 1438 1436 1435 1434 1433 1432 1432 1431 1430 1430 1429 1428 1428 1427 1427 1426 1426 1426 1425 1425 1425 1424 1424 1423 1423 1423 1422 1422 1421 1420 1420 1420 1420 1420 1420 1420 1420